Home > Time Zones > World Clock > Weather > Palau > Koror > Past weeks

Flag for Palau Weather past 2 weeks in Koror, Palau

Now
75 °F

Passing clouds.


Feels Like: 74 °F
Forecast: 80 / 87 °F
Wind: 3 mph from East

Location: Koror / Palau Island


UV Index: 10 (Very high)

Visibility: 14 mi


Pressure: 29.79 "Hg

Humidity: 94%

Dew point: 73 °F

Location of KororLocation

Historic Weather in Koror

°F

Koror temperature yesterday

Maximum temperature yesterday: 88 °F (at 10:50 AM)
Minimum temperature yesterday: 77 °F (at 4:50 AM)
Average temperature yesterday: 81 °F

Past Weeks' High & Low Weather Summary

 TemperatureHumidityPressure
High88 °F (Apr 11, 11:50 AM)100% (Apr 9, 4:50 AM)29.87 "Hg (Apr 9, 4:50 AM)
Low75 °F (Apr 20, 10:50 AM)62% (Apr 21, 11:53 AM)29.65 "Hg (Apr 10, 2:58 PM)
Average82 °F88%29.77 "Hg
* Reported Apr 9 3:57 AM — Apr 24 3:58 AM, Koror, Weather by CustomWeather, © 2014

Note: Actual official high and low records may vary slightly from our data, if they occured in-between our weather recording intervals... More about our weather records

Advertising

Historic Weather Conditions — Data for Previous 24 hours

 ConditionsComfort  
Time TempWeatherWind HumidityBarometerVisibility
3:58 AM
Apr 24
75 °FPassing clouds.5 mph94%29.79 "Hg14 mi
2:54 AM79 °FPartly cloudy.No wind89%29.80 "Hg14 mi
1:55 AM79 °FPartly cloudy.5 mph89%29.80 "Hg14 mi
12:50 AM79 °FPartly cloudy.5 mph89%29.82 "Hg15 mi
11:50 PM
Apr 23
79 °FPassing clouds.6 mph94%29.84 "Hg15 mi
10:56 PM79 °FPassing clouds.6 mph94%29.85 "Hg15 mi
9:55 PM79 °FPassing clouds.3 mph94%29.84 "Hg15 mi
8:52 PM79 °FPassing clouds.3 mph94%29.82 "Hg15 mi
7:50 PM79 °FPartly cloudy.No wind94%29.81 "Hg15 mi
6:53 PM81 °FPartly cloudy.No wind89%29.80 "Hg15 mi
5:50 PM82 °FBroken clouds.6 mph84%29.78 "Hg15 mi
4:52 PM84 °FPartly sunny.5 mph79%29.77 "Hg15 mi
3:50 PM82 °FMostly cloudy.8 mph89%29.78 "Hg14 mi
2:58 PM82 °FPartly sunny.13 mph89%29.78 "Hg14 mi
1:54 PM82 °FPartly sunny.10 mph89%29.80 "Hg14 mi
12:51 PM81 °FSprinkles. Mostly cloudy.14 mph89%29.82 "Hg9 mi
11:50 AM84 °FPartly sunny.8 mph89%29.83 "Hg14 mi
10:50 AM88 °FPartly sunny.9 mph75%29.85 "Hg15 mi
9:50 AM86 °FBroken clouds.10 mph79%29.87 "Hg15 mi
8:50 AM86 °FBroken clouds.8 mph79%29.86 "Hg15 mi
7:50 AM81 °FBroken clouds.No wind94%29.83 "Hg15 mi
6:57 AM79 °FBroken clouds.No wind100%29.83 "Hg15 mi
Weather by CustomWeather, © 2014

See weather overview